GFSNGP_925_thetae_273.txt.gz
Theta_e
323 323 324 325 329 333 335 334 336 334 339 339 340 340 347 344 347 353 357 357 357 356 355 352 348 344 344 344 345 345 345 344 343 342 341 339 337 336 336 338 338 335 334 332
323 320 322 325 327 330 332 332 335 335 336 335 336 341 346 346 350 355 357 357 358 358 356 352 347 344 344 345 345 344 343 342 340 339 337 335 333 332 331 331 331 333 330 328
326 324 324 326 327 329 329 332 333 335 337 338 342 345 346 346 347 355 357 358 359 358 355 352 347 346 346 346 345 344 342 340 339 336 335 332 330 327 326 325 325 324 323 323
330 330 329 328 325 328 329 330 332 335 337 338 341 343 343 344 345 352 356 358 358 357 354 352 347 347 346 345 344 342 341 339 337 335 333 329 326 323 321 322 321 322 318 319
337 334 330 329 338 337 337 334 334 337 339 343 344 343 344 344 347 349 355 356 357 354 352 349 346 347 347 346 345 342 341 339 336 333 331 327 324 321 317 321 318 319 320 319
330 335 332 333 340 340 340 335 338 341 343 344 346 347 346 345 348 349 353 354 355 352 350 348 347 347 347 346 344 341 339 336 333 332 328 324 321 319 315 317 318 318 319 318
333 335 333 329 339 339 342 335 341 342 345 344 348 347 347 343 351 353 355 355 353 351 350 348 347 347 347 346 343 337 333 331 329 326 323 318 316 316 318 319 319 318 317 314
341 339 339 339 339 343 343 342 341 341 345 345 347 347 349 343 355 357 357 354 353 352 351 348 347 348 346 344 336 332 330 327 325 324 319 318 318 317 316 319 320 320 317 315
343 343 342 341 340 339 338 341 341 340 343 345 344 346 351 345 354 357 356 354 353 351 346 347 347 346 344 335 333 329 325 322 322 321 319 317 321 321 319 320 319 319 318 317
340 341 338 338 338 337 337 339 338 339 341 343 343 346 352 352 352 355 355 353 351 346 344 343 342 344 339 333 330 327 324 322 321 320 319 318 317 317 317 316 316 315 315 315
340 339 337 335 335 334 334 336 338 341 341 343 345 349 352 353 353 353 351 346 346 343 342 338 338 335 333 330 327 326 322 320 318 316 316 315 312 312 313 312 312 314 313 312
338 337 338 337 334 335 336 338 338 341 344 344 347 349 349 349 347 344 342 341 342 337 334 333 335 330 329 327 325 322 319 317 315 316 315 314 314 313 310 311 310 310 309 308
336 334 336 336 334 334 339 340 339 339 342 348 347 347 345 344 340 338 339 337 336 335 332 327 326 325 324 322 321 319 317 317 315 316 317 317 315 314 315 312 310 310 309 307
334 333 336 334 338 337 338 341 340 343 344 346 344 342 340 338 335 337 336 333 329 327 325 323 322 320 319 317 317 318 317 316 318 318 318 317 315 314 314 313 313 312 310 308
333 333 334 334 336 337 340 341 343 343 343 342 341 339 337 336 335 332 329 328 323 322 320 320 317 317 315 316 317 318 317 316 315 316 316 314 314 314 313 313 313 312 311 311
333 333 333 333 334 336 338 340 342 344 342 341 341 338 335 331 327 326 322 321 321 320 318 318 318 317 315 317 318 316 314 312 313 314 314 314 314 313 312 312 312 312 312 311
333 336 336 335 336 335 336 336 338 343 342 342 340 336 334 332 328 323 321 322 321 318 318 318 319 315 316 318 318 318 315 314 311 313 313 313 312 312 312 312 312 312 311 311
333 333 333 335 336 337 336 336 340 342 343 339 337 335 333 331 331 325 321 321 318 317 317 317 317 315 316 316 319 318 317 315 313 312 312 312 312 312 311 312 312 311 310 310
330 331 332 333 334 336 338 341 342 340 339 336 335 335 332 329 328 325 320 319 318 319 319 317 316 315 316 315 315 317 316 314 312 312 312 311 311 311 311 311 310 310 310 310
331 330 332 333 331 335 340 340 341 340 339 338 338 334 330 327 324 320 320 321 320 319 318 316 315 316 315 316 314 317 317 313 311 312 312 311 311 311 311 310 310 311 312 312
336 336 331 332 334 337 339 340 339 339 337 336 333 332 331 325 323 321 320 321 320 318 319 316 316 316 316 314 315 317 314 312 311 312 311 311 311 311 311 312 313 313 313 313
333 336 337 333 333 333 337 339 337 337 336 334 333 330 325 322 321 321 322 321 319 318 319 317 316 316 316 316 316 313 312 312 311 312 311 311 312 312 312 313 313 313 313 313
332 334 336 336 336 335 336 338 337 335 334 331 330 327 328 325 323 323 322 320 319 318 318 317 316 315 316 315 314 312 312 312 312 311 311 312 312 312 312 313 312 312 312 313
332 334 335 333 333 334 337 336 335 335 333 330 328 328 327 325 323 322 321 319 318 317 317 317 316 316 314 313 312 313 313 313 312 312 312 310 312 313 313 313 313 313 313 313
331 333 333 333 335 335 334 333 332 331 329 328 327 326 326 325 323 320 320 319 318 317 318 316 317 316 313 312 312 313 313 312 311 311 312 312 312 313 313 313 313 313 313 313
332 335 336 332 332 330 330 330 331 330 329 327 326 325 324 323 321 320 320 319 318 318 319 317 316 314 311 312 312 311 311 311 310 311 311 312 313 313 313 314 314 314 314 314
334 332 333 333 331 330 328 330 330 329 328 328 326 324 322 322 321 320 319 318 316 316 317 317 314 311 311 311 311 310 310 311 310 311 312 312 313 314 315 315 315 314 314 314

GFSNGP_925_thetae_276.txt.gz
Theta_e
325 325 327 329 331 333 335 335 336 336 334 335 336 339 342 348 352 357 359 359 359 361 359 359 358 355 352 350 349 348 349 348 347 346 345 344 344 344 343 342 341 340 339 337
326 325 325 326 329 332 334 335 333 333 334 333 335 345 345 347 350 356 360 359 359 360 361 359 354 351 349 348 348 348 348 346 345 344 343 342 341 340 340 339 339 337 335 333
328 326 325 326 327 328 330 330 330 331 332 333 336 339 346 347 349 353 359 359 360 360 360 356 352 349 348 348 347 347 346 345 344 344 343 341 339 337 335 334 332 329 328 326
329 330 329 327 329 329 329 329 329 330 332 332 337 343 345 347 348 352 356 359 361 361 358 355 351 348 347 348 348 347 346 345 344 342 340 337 335 333 331 329 328 326 323 323
335 330 328 330 331 332 333 331 331 333 331 332 341 347 348 346 347 350 355 359 361 359 358 354 351 349 348 347 347 346 345 343 342 340 339 336 332 329 326 325 322 322 322 322
337 334 331 330 338 341 339 332 340 340 340 342 343 343 347 348 347 349 354 357 360 359 357 353 351 349 348 347 346 345 343 342 340 339 337 333 328 325 322 322 322 320 321 322
335 336 333 338 341 341 338 341 343 344 346 349 350 347 350 349 348 349 354 358 358 357 355 352 349 348 349 347 346 345 343 341 339 337 332 327 323 322 323 322 322 321 321 320
339 339 338 338 342 343 346 345 346 346 346 350 350 347 348 349 351 351 356 359 357 355 353 351 350 349 349 348 345 342 340 339 335 330 323 322 323 323 323 323 323 322 322 320
336 338 346 342 342 342 342 344 345 344 344 345 348 347 348 349 353 356 358 358 357 355 354 352 350 350 349 344 341 339 337 333 330 325 322 323 323 323 323 322 320 320 318 317
345 334 337 341 341 341 341 342 341 340 343 345 348 347 348 353 352 358 359 359 357 357 355 353 351 350 344 339 338 335 332 329 326 323 323 322 321 320 318 317 316 316 315 314
344 342 340 340 340 340 338 338 339 339 342 345 347 348 349 353 353 355 360 359 358 355 352 351 348 341 339 335 333 332 330 327 323 321 321 320 319 317 316 316 314 313 313 313
340 342 340 339 338 338 338 340 342 342 343 346 347 349 350 354 356 355 356 355 352 346 343 340 343 341 337 334 333 330 327 322 319 318 318 317 316 313 311 312 311 310 309 308
337 336 338 337 336 337 338 340 342 342 343 346 349 349 350 353 352 345 347 345 343 341 342 337 335 333 334 333 331 326 321 319 317 318 318 317 316 316 317 312 311 311 309 307
333 333 335 336 338 338 339 341 341 343 344 347 349 349 349 349 342 343 342 341 340 339 337 336 334 332 330 328 324 320 319 317 318 319 318 317 317 317 314 314 313 313 312 312
334 334 334 335 337 338 340 342 343 344 344 347 348 349 347 344 342 340 338 339 340 335 335 330 328 325 322 321 320 319 317 318 319 318 318 317 316 315 313 313 313 313 313 313
334 333 335 338 338 338 338 341 342 342 344 346 347 346 345 339 335 334 333 331 333 330 322 323 321 319 319 319 320 319 319 317 316 316 315 315 315 313 313 313 313 313 313 313
339 338 335 339 339 338 338 338 338 340 345 347 346 344 340 338 335 334 334 333 330 326 322 320 319 319 320 320 319 317 315 314 314 314 314 313 312 312 312 312 313 313 313 312
341 340 338 335 338 339 339 339 339 342 346 346 345 343 341 341 341 337 334 328 325 322 321 320 315 318 320 320 319 316 316 316 314 313 312 313 312 312 313 313 313 312 312 313
336 338 338 337 336 338 339 342 342 344 345 345 343 342 341 340 337 333 329 326 323 321 321 318 317 319 320 320 318 317 316 315 313 312 312 311 312 312 312 312 312 313 314 315
340 335 335 336 336 337 340 342 344 345 344 342 340 341 340 338 332 326 324 321 324 322 320 320 317 319 320 318 317 317 317 315 313 312 312 311 312 312 313 313 314 315 316 315
338 340 336 336 337 336 340 342 344 345 343 342 343 341 338 329 325 323 324 324 322 320 320 317 317 319 318 317 317 319 318 315 313 312 312 312 313 314 315 316 316 316 315 315
336 338 341 337 336 338 340 342 344 344 344 343 339 339 334 330 328 325 325 324 322 320 318 317 318 317 317 316 318 318 316 314 312 312 312 314 314 315 315 316 316 316 316 316
336 337 338 341 339 337 337 341 342 342 342 339 336 334 331 331 330 329 329 325 322 320 318 317 318 317 316 318 318 316 313 311 312 313 313 314 315 315 316 316 316 316 317 317
336 337 338 339 340 340 342 340 340 341 341 340 338 333 333 332 332 331 328 322 320 320 319 318 316 315 317 318 315 312 312 312 313 314 315 314 315 316 316 317 317 318 318 317
336 337 337 339 341 342 341 341 341 340 340 338 337 335 335 334 334 328 323 321 318 318 318 316 315 316 317 314 312 312 312 313 314 315 316 316 316 316 317 318 318 318 318 318
336 336 338 340 339 338 339 339 341 340 339 337 336 335 335 333 328 324 323 321 318 318 319 317 317 317 316 312 312 312 313 314 314 314 314 315 316 317 318 319 319 319 319 318
339 334 339 338 337 336 336 335 337 339 337 337 336 334 332 328 324 324 322 320 319 319 320 319 319 317 313 312 311 311 314 315 314 315 315 315 317 318 319 320 320 320 319 319

GFSNGP_925_thetae_279.txt.gz
Theta_e
326 327 328 329 330 332 335 337 338 338 336 337 336 337 344 349 355 356 357 356 358 361 361 363 363 362 360 357 353 352 351 351 351 350 349 348 348 346 345 344 343 343 341 340
327 327 327 327 328 330 332 333 335 336 336 335 335 336 338 344 352 357 359 357 357 362 362 363 362 360 356 353 351 351 352 351 351 350 348 347 345 344 344 343 341 340 338 337
328 328 327 328 328 330 332 333 335 336 335 334 334 335 337 343 348 354 357 359 359 363 361 360 360 356 353 351 351 351 351 349 348 348 346 345 344 343 342 340 338 336 333 331
330 330 330 328 329 328 330 331 332 332 331 332 333 334 337 340 345 351 356 359 360 360 358 359 357 352 349 350 350 350 350 348 348 347 346 344 342 341 338 336 335 331 328 326
331 332 331 329 330 329 330 331 331 332 333 333 333 333 337 347 344 348 352 357 358 357 358 359 355 349 349 349 350 349 349 348 347 345 343 342 340 337 334 331 327 326 325 325
340 337 333 331 331 331 332 334 335 337 338 340 339 340 347 351 349 348 350 355 358 358 359 358 353 350 349 349 349 348 348 346 344 344 342 341 337 332 328 326 325 324 324 324
337 342 340 338 339 336 334 344 346 346 348 349 350 352 349 348 350 348 352 354 358 359 359 357 353 351 349 349 348 348 346 344 342 341 340 337 331 326 326 325 325 324 324 323
336 336 341 344 338 338 348 346 346 347 347 349 349 350 349 350 350 350 354 356 359 360 358 355 353 351 349 349 348 346 345 342 341 339 334 329 326 326 326 326 325 325 324 323
337 343 339 344 346 343 343 344 345 344 344 346 348 349 349 354 350 351 355 358 359 359 357 354 351 350 351 349 348 344 343 341 338 333 327 326 326 326 325 324 324 324 322 320
336 338 338 342 338 340 340 341 341 340 342 344 347 348 350 353 352 354 355 361 359 357 356 355 353 352 351 348 344 343 342 338 334 329 325 325 325 324 323 321 320 319 318 317
340 334 336 338 342 341 340 339 341 341 341 343 345 347 350 351 352 356 359 359 358 357 357 355 353 350 346 343 343 341 337 333 329 326 324 325 323 321 319 318 313 313 315 314
336 342 344 345 341 339 339 340 342 342 343 343 346 348 350 352 354 354 361 361 359 357 355 350 344 342 341 340 338 334 331 328 326 322 323 321 319 316 314 314 308 309 309 307
335 336 338 338 337 336 338 339 340 342 343 345 345 346 349 354 357 358 362 357 354 346 344 343 341 339 337 337 334 332 330 326 320 320 320 320 319 318 318 312 309 311 311 308
332 333 334 334 335 335 338 338 338 341 343 343 346 347 348 352 351 352 349 346 344 342 340 341 340 337 336 334 332 328 323 320 319 320 320 320 319 319 318 317 316 316 313 312
331 331 332 332 334 335 338 339 341 342 343 344 345 348 349 353 350 345 344 343 343 343 342 340 338 336 332 329 324 322 319 318 321 321 320 319 319 318 317 315 315 315 316 314
332 335 334 335 337 338 339 340 342 341 342 344 346 348 349 347 341 341 341 342 343 342 338 334 334 331 328 324 321 319 320 320 320 320 317 316 317 316 315 315 315 315 315 316
338 337 336 335 336 339 339 339 339 340 341 346 347 349 345 340 338 336 337 337 335 335 333 331 329 325 322 321 321 320 318 316 316 317 316 316 315 314 314 315 315 315 315 314
342 342 341 338 337 340 339 338 339 339 341 346 348 346 341 338 337 335 337 335 333 332 329 324 322 321 322 321 319 317 316 315 316 315 314 314 314 314 315 315 315 315 315 316
341 342 341 342 340 339 339 339 341 341 346 348 347 343 341 340 339 337 332 329 327 323 321 321 320 321 321 319 317 317 317 316 314 314 315 312 313 314 314 314 315 316 317 317
341 340 338 339 339 338 339 340 342 346 348 347 347 345 343 339 333 327 326 324 323 322 319 319 320 321 321 319 318 318 318 317 314 314 314 314 314 315 315 315 316 317 317 317
340 341 341 338 338 338 338 341 345 348 347 345 344 343 342 338 333 324 324 324 322 322 320 319 321 321 319 318 319 320 320 317 314 314 313 315 314 316 317 317 317 317 317 318
340 340 342 340 338 339 338 341 345 347 346 345 344 343 339 335 330 328 324 325 322 321 321 318 319 320 318 317 320 320 319 316 314 314 314 315 316 317 317 317 317 318 318 318
338 340 340 343 341 338 339 342 344 346 346 345 344 342 338 334 331 331 331 327 323 320 319 318 319 318 318 318 320 319 317 314 313 314 315 316 317 317 317 318 318 319 319 319
338 338 340 339 341 342 341 340 343 344 346 344 341 339 335 332 331 330 332 328 324 320 320 319 318 317 316 320 319 318 313 313 314 315 316 315 317 318 318 319 319 319 320 319
338 338 338 339 341 343 343 342 343 344 345 342 339 336 333 332 334 334 331 326 323 320 320 318 317 316 318 319 316 314 314 314 315 316 317 318 318 318 319 320 320 321 320 320
339 338 338 339 341 340 341 343 344 342 344 343 342 338 335 335 336 333 328 324 320 321 321 318 316 317 318 317 314 314 314 315 315 316 317 317 318 319 320 320 321 321 321 320
339 336 338 339 338 339 339 340 343 343 342 341 341 339 338 337 333 328 325 322 320 320 320 317 318 318 319 315 313 313 314 316 316 317 318 318 318 320 321 321 321 322 321 321

GFSNGP_925_thetae_285.txt.gz
Theta_e
322 324 324 323 324 327 327 326 327 341 340 340 345 344 337 354 354 358 357 356 357 362 365 367 367 366 365 364 362 361 361 357 356 357 352 351 350 348 346 344 342 340 339 337
326 325 324 324 325 324 327 327 328 336 340 337 338 339 339 353 355 357 357 354 360 364 364 367 367 367 365 363 362 360 359 357 353 351 350 349 348 347 344 341 340 338 337 334
326 325 324 324 325 325 325 327 328 328 328 337 336 333 336 351 355 356 356 354 360 363 362 366 367 366 364 362 360 358 354 352 351 350 348 347 346 343 341 340 338 335 332 331
339 333 330 326 325 326 326 326 326 329 329 335 334 335 346 347 352 356 355 353 357 361 361 366 366 364 361 358 356 355 354 352 350 348 347 346 343 342 340 338 335 331 327 328
336 337 331 329 341 344 343 331 345 346 332 334 336 346 346 347 347 350 354 352 352 360 360 365 364 361 357 356 356 354 352 349 348 347 344 343 342 340 336 333 329 327 326 325
337 338 339 345 342 342 343 344 346 346 347 340 339 350 348 344 345 345 352 355 353 360 361 362 362 357 355 356 356 352 351 349 348 344 343 342 339 335 332 328 326 327 325 325
341 345 347 342 344 343 351 354 344 340 345 348 348 347 347 349 349 348 347 354 358 360 362 361 357 354 354 355 354 352 350 347 346 344 342 340 337 330 327 328 324 325 325 325
347 351 349 339 342 346 342 343 342 338 335 342 345 347 346 349 348 348 351 354 359 358 361 357 354 353 353 353 353 351 348 345 343 341 338 336 330 327 327 328 326 325 324 323
341 345 339 338 340 339 339 342 343 340 337 334 344 345 348 349 348 348 355 357 358 358 358 354 353 352 352 351 350 348 345 342 342 340 338 332 326 327 327 326 326 327 327 327
339 341 337 338 337 338 341 339 337 336 334 338 341 342 348 346 349 350 352 357 361 359 354 352 352 352 350 348 347 344 342 340 339 332 329 328 327 326 326 327 326 315 313 315
336 334 334 337 337 339 340 337 340 341 340 341 341 342 346 345 353 358 363 362 359 356 352 351 350 348 346 345 342 341 341 339 335 329 328 326 327 326 323 315 314 311 309 308
339 335 336 338 341 338 337 337 335 340 342 342 342 343 345 359 363 363 363 361 356 352 350 348 345 344 345 336 332 333 341 339 334 329 327 327 321 317 316 312 313 314 313 312
334 332 335 336 341 338 337 338 335 335 340 341 341 342 344 360 359 356 351 354 352 349 347 345 344 340 337 333 336 335 338 334 334 329 325 328 326 320 315 315 314 313 313 313
331 331 335 335 335 339 339 338 335 336 338 338 340 344 349 355 352 349 347 349 349 347 345 345 343 336 334 335 336 337 337 339 332 328 323 326 324 319 317 316 314 314 314 315
334 331 330 330 330 331 332 334 335 334 336 338 340 344 353 351 346 346 345 344 346 346 345 344 339 338 338 339 337 338 338 333 328 326 323 323 323 322 321 319 318 318 317 316
334 334 333 335 335 335 335 335 336 337 338 340 350 350 348 347 346 345 344 343 344 343 343 341 339 338 338 337 337 335 331 327 323 320 321 321 320 319 318 318 317 316 317 316
334 337 339 339 339 338 337 335 334 339 341 350 347 344 343 341 341 341 341 343 341 339 338 338 337 337 337 336 333 330 324 321 319 321 320 318 317 317 317 315 316 316 315 316
338 339 338 338 341 342 341 341 339 340 349 349 347 342 342 338 337 337 336 336 336 336 335 335 335 333 329 327 326 323 319 319 319 319 317 317 317 315 315 316 315 316 316 316
338 340 341 342 342 342 342 342 342 349 337 345 344 341 339 337 336 334 333 330 327 326 329 332 329 325 323 321 321 321 320 318 317 317 314 314 314 315 315 315 316 316 317 318
340 340 342 343 342 342 343 341 344 347 331 341 340 338 335 332 330 327 326 323 322 322 324 324 324 321 319 316 316 316 315 316 317 314 314 313 314 315 316 316 317 317 317 318
340 340 342 344 342 340 342 341 348 350 346 344 340 337 333 330 327 325 323 321 321 323 323 322 321 318 317 318 317 319 318 315 315 315 314 314 315 316 317 318 318 318 318 320
341 341 342 344 345 341 339 339 352 351 347 343 340 335 331 328 326 326 324 323 320 319 320 319 319 318 318 320 320 319 320 317 315 314 313 315 316 317 319 318 319 319 320 322
342 341 342 344 343 345 344 351 351 350 348 345 342 338 333 331 330 326 323 320 319 318 318 318 318 316 318 321 319 319 320 315 314 315 315 316 318 318 318 319 320 321 321 321
342 341 341 341 341 343 346 344 351 350 349 347 344 338 335 332 331 328 326 320 318 317 319 320 317 321 322 320 318 318 320 316 315 315 317 318 317 318 319 320 320 320 321 322
343 341 341 340 341 343 344 345 349 350 348 347 343 340 335 334 332 330 328 324 324 321 320 319 321 320 320 319 317 317 314 314 315 317 317 316 318 319 319 320 320 322 322 322
343 342 341 342 342 342 342 341 342 344 347 346 344 340 337 336 334 332 329 326 324 321 320 318 319 319 318 317 319 318 316 313 315 316 317 318 319 319 319 319 322 323 322 322
343 340 342 341 339 340 340 339 337 332 328 332 335 340 335 334 333 332 329 325 324 320 322 322 319 319 318 318 320 316 314 314 315 316 318 318 318 319 320 322 322 323 324 322

GFSNGP_925_thetae_288.txt.gz
Theta_e
316 318 321 322 321 321 324 322 326 328 338 344 340 339 339 341 348 347 349 349 351 358 359 359 359 359 361 360 360 359 359 357 355 355 356 351 350 348 347 346 344 340 338 336
322 320 320 322 321 321 322 325 325 335 336 338 337 335 335 339 349 352 352 352 356 363 363 360 360 361 361 359 359 358 356 356 355 356 353 350 349 346 344 341 340 339 336 328
330 329 327 322 338 333 327 339 333 336 333 335 339 339 338 336 350 353 352 353 359 364 362 362 362 361 361 360 359 357 357 355 355 351 349 347 346 344 341 339 338 337 333 330
328 327 329 325 338 342 342 347 344 345 346 334 339 336 334 333 350 351 352 351 358 361 363 363 363 362 360 360 358 356 354 352 350 348 347 345 342 341 340 339 335 331 329 328
328 330 327 341 339 342 345 344 340 340 338 338 340 342 342 345 347 349 350 349 357 360 363 364 363 361 359 357 354 352 349 348 348 348 346 344 341 341 339 337 333 328 326 326
330 333 335 341 336 336 340 348 342 341 339 335 342 346 344 343 342 345 350 348 356 359 363 364 361 359 357 354 352 350 349 348 347 346 345 342 340 339 336 332 327 326 325 325
340 338 336 339 336 338 349 348 342 343 342 336 344 344 341 344 343 343 346 349 355 358 363 363 358 356 354 353 351 350 349 348 345 343 343 341 339 336 331 327 326 326 325 325
340 345 340 337 338 342 338 338 342 342 340 338 337 342 345 344 344 345 348 351 357 358 361 359 356 354 353 351 350 349 348 347 344 343 341 339 337 329 326 326 324 324 324 324
338 339 335 337 336 336 335 337 339 340 340 338 336 339 342 342 343 347 351 355 358 358 353 353 353 353 349 351 351 348 347 344 342 340 339 337 330 326 328 326 325 326 326 326
336 333 333 335 335 335 338 338 335 336 337 337 336 334 339 341 358 360 354 353 355 352 350 350 351 352 350 349 345 341 337 337 340 339 337 332 325 327 327 325 321 318 319 319
333 330 329 329 331 332 337 335 336 338 334 333 338 339 341 356 360 359 356 355 352 351 350 349 349 347 346 344 343 342 339 338 340 339 330 327 327 326 326 325 319 313 313 314
334 331 328 329 334 336 336 333 333 334 334 334 338 340 349 358 355 352 351 351 350 349 349 348 347 344 343 344 342 336 333 337 331 330 329 327 326 326 316 313 311 312 312 311
328 329 329 331 336 337 332 328 327 328 333 332 334 338 353 352 349 350 350 349 349 348 346 347 346 343 343 343 342 335 338 334 332 330 326 320 319 317 311 310 312 313 313 314
328 330 331 332 333 334 336 334 333 335 334 333 333 340 352 347 345 346 349 351 349 346 344 344 343 339 335 335 334 336 336 337 336 329 326 326 324 320 316 315 313 313 315 315
331 328 328 328 329 330 334 336 337 337 336 332 342 349 347 343 341 342 345 347 348 347 343 342 339 334 333 334 335 336 335 335 334 329 325 326 324 324 318 316 317 317 317 316
329 329 328 329 333 333 329 330 332 330 335 348 347 345 345 343 343 343 342 343 343 344 344 341 338 335 334 335 335 335 335 336 331 325 323 324 324 323 320 320 318 318 317 316
329 329 330 333 333 336 335 333 333 338 346 346 343 343 340 339 340 340 341 342 342 343 344 342 339 339 337 337 337 335 335 330 327 325 322 322 322 318 317 316 316 316 315 315
328 326 328 331 332 334 336 336 337 345 346 343 337 337 336 334 333 336 337 338 338 338 339 340 339 338 337 336 336 333 329 324 320 320 319 318 317 317 315 315 315 315 315 316
331 334 333 333 334 335 336 336 335 344 345 343 339 337 335 335 335 334 334 334 333 332 331 334 336 333 332 333 330 324 319 319 319 317 317 316 315 315 315 315 315 316 316 317
334 335 337 338 338 339 338 340 338 336 333 341 339 335 335 334 332 331 330 325 326 329 331 330 329 328 327 327 322 319 317 317 317 315 313 313 313 315 315 315 316 316 317 319
336 337 337 337 339 340 337 341 333 328 329 340 336 334 332 330 329 327 324 323 324 327 327 325 322 319 317 317 319 317 316 315 314 313 313 314 314 315 315 316 317 318 319 320
334 335 337 338 339 339 340 339 342 336 334 337 334 331 328 325 325 324 324 324 323 322 320 318 317 316 316 317 317 316 317 316 314 314 314 314 315 315 318 318 319 321 321 321
334 335 337 339 337 337 342 343 346 343 340 337 332 330 329 327 326 323 321 324 323 323 322 320 318 319 318 317 319 319 319 318 316 313 314 315 317 318 318 319 320 320 321 321
334 335 336 338 338 336 337 343 346 344 340 337 333 332 330 327 327 327 328 325 323 322 321 321 319 319 318 319 320 318 319 318 314 314 315 317 317 318 319 319 320 320 321 322
331 336 337 335 333 333 338 341 345 344 342 340 337 332 331 330 329 327 328 325 322 319 319 318 319 318 318 319 320 317 319 317 315 315 317 317 318 319 319 319 319 321 322 321
325 330 336 338 337 337 337 337 334 340 340 338 337 335 334 332 330 326 326 324 320 318 319 319 318 317 319 320 318 317 315 315 316 317 317 316 318 319 319 319 320 322 323 322
325 329 335 336 339 338 335 334 333 334 336 335 332 336 334 334 331 329 325 323 320 318 320 321 318 318 319 319 318 317 315 314 317 317 317 318 318 319 318 321 322 323 323 321

GFSNGP_925_thetae_291.txt.gz
Theta_e
317 317 320 321 324 319 320 319 322 321 334 335 339 339 337 336 338 340 340 345 347 349 349 352 356 357 357 358 358 358 358 357 356 354 351 351 349 348 346 346 344 342 340 340
323 327 324 338 342 337 331 347 326 329 331 336 334 333 334 335 344 346 343 346 349 354 353 355 356 357 358 358 358 358 357 355 353 353 352 349 350 347 346 344 341 339 335 330
329 326 324 324 342 343 341 344 345 342 337 339 338 337 335 331 336 346 347 347 351 357 356 356 357 358 358 358 358 357 355 354 353 353 353 349 348 346 343 340 339 335 328 328
328 324 330 325 336 341 344 340 340 342 341 340 338 336 338 338 333 343 348 348 352 357 357 357 358 358 358 357 356 356 354 353 353 353 350 348 345 343 341 339 337 334 331 327
329 326 326 337 336 338 342 345 342 343 342 341 338 340 345 342 339 338 345 346 353 359 359 359 359 358 358 357 355 353 351 351 351 349 346 345 343 340 339 336 334 332 329 326
327 331 332 334 336 334 336 346 341 341 341 341 339 352 347 341 342 343 345 346 354 359 361 360 359 358 357 355 353 351 348 347 347 346 346 344 340 339 337 337 332 327 325 324
337 336 334 335 335 334 345 346 339 340 341 340 336 340 339 339 347 346 346 346 352 360 361 361 359 357 355 353 350 348 347 344 346 346 344 341 340 338 337 334 328 325 324 324
337 340 337 332 334 336 334 336 339 339 339 339 338 337 337 343 354 352 351 347 354 357 360 360 357 355 353 351 349 348 349 347 347 345 343 340 338 337 332 326 325 325 325 325
335 333 330 334 332 332 333 335 337 338 339 339 340 337 337 355 359 357 350 353 355 358 357 355 355 354 350 348 348 346 343 342 344 343 341 339 338 337 328 325 324 324 323 323
332 327 330 331 332 332 333 334 335 336 337 340 338 339 335 357 358 356 354 353 354 352 351 352 352 350 351 348 346 344 342 343 341 340 339 335 332 328 325 325 324 325 324 325
330 329 328 327 328 330 331 331 335 334 335 334 333 335 340 358 357 356 353 351 351 348 348 346 346 337 341 343 345 344 342 339 338 337 334 334 331 324 326 324 324 320 318 317
329 325 325 325 326 331 329 331 333 333 332 331 332 333 356 353 352 352 350 350 348 346 347 347 335 335 336 341 342 343 341 338 335 333 332 329 326 327 325 325 320 313 310 310
326 326 326 326 326 332 334 333 333 329 327 328 330 333 353 349 349 350 349 348 347 347 347 348 344 340 342 342 342 341 337 334 332 330 329 326 325 324 316 312 311 313 313 312
326 327 328 328 329 328 332 333 329 332 333 334 333 333 349 346 346 347 347 349 349 347 346 345 343 342 341 341 338 337 336 332 331 329 328 325 325 321 312 311 311 312 313 314
324 326 327 327 326 327 327 331 333 333 333 333 337 339 345 342 340 342 346 348 347 344 344 344 342 339 340 339 336 335 332 331 331 328 325 322 321 317 313 314 314 314 315 315
323 326 327 327 328 326 330 328 331 330 329 335 346 344 343 342 340 341 342 344 343 343 342 343 340 338 338 337 335 335 335 333 330 327 325 322 322 319 315 315 315 316 316 316
325 326 326 327 329 330 332 330 328 333 340 344 342 343 342 340 338 338 340 342 342 342 341 341 339 337 335 334 334 334 334 332 332 329 325 325 323 322 322 319 319 317 316 315
324 325 323 323 326 328 331 333 335 341 343 343 342 340 336 334 334 334 337 336 337 339 340 340 340 337 335 335 335 335 334 333 330 323 323 324 323 322 320 317 315 315 314 314
325 326 326 327 327 329 330 333 338 344 343 340 336 332 334 333 333 335 334 335 335 333 334 337 339 337 335 335 336 333 331 329 325 323 321 321 320 316 314 314 314 314 315 316
326 327 329 331 333 334 335 335 335 339 343 340 335 333 333 332 333 332 331 329 330 331 330 330 332 331 331 329 328 326 323 321 320 317 317 316 315 314 314 314 315 315 316 318
330 330 333 334 335 339 337 337 336 334 337 339 335 332 332 330 331 328 326 324 326 329 328 326 326 323 324 321 318 317 318 318 317 315 314 313 314 314 314 314 315 317 319 319
327 328 331 335 336 337 337 338 338 334 334 335 335 333 329 327 327 326 326 327 326 328 327 323 319 319 319 318 317 316 315 313 312 312 313 312 314 315 315 317 319 321 320 320
327 326 326 332 335 336 338 339 337 331 334 332 330 328 327 326 324 323 321 325 326 324 322 317 318 320 318 318 317 316 318 321 315 315 312 314 315 315 317 318 320 320 321 321
327 327 327 327 332 334 335 338 342 336 334 334 334 333 330 328 327 326 326 325 322 319 317 316 317 318 316 318 319 319 317 316 317 318 312 315 317 317 318 319 319 319 320 321
326 327 327 326 330 331 335 339 340 336 335 333 334 334 332 332 331 330 328 323 322 322 319 317 318 318 318 318 319 320 319 318 316 313 314 317 317 317 318 319 319 319 321 321
327 327 326 326 329 333 334 337 337 336 336 334 333 332 328 330 332 332 328 326 323 323 321 319 318 318 318 319 319 319 316 317 313 314 316 317 317 318 318 319 318 320 322 322
326 326 325 327 333 335 334 335 336 336 337 335 334 333 331 333 332 331 329 327 323 321 320 319 319 319 317 318 318 318 314 316 314 315 316 316 317 318 318 318 321 322 323 322